Location: Unspecified
(0.0000°N, 0.0000°E)
Time: 12:14:27

Vanguard 1 Rocket - Pass Details

Date: 13 December 2017
Orbit: 655 x 4222 km, 34.3° (Epoch: 22 March)

Event Time Altitude Azimuth Distance (km) Brightness Sun altitude
Exits shadow 02:59:45 46° 256° (WSW) 4,465 10.4 -39.3°
Maximum altitude 03:05:26 53° 221° (SW) 3,883 10.3 -38.1°
Drops below altitude 10° 03:20:23 10° 146° (SE) 4,816 11.7 -34.9°
Sets 03:23:29 0° 140° (SE) 5,434 12.3 -34.2°
